EHI
0 0 0 0 0 0 0 0 0 0 0 0 0 0 0 0 0 0 0 1 4 7 5 4 3 3 3 3 3 3 3 3 3 3 3 1 0 0 0 0 0 0 0 0 0 1 1 0 0
0 0 0 0 0 0 0 0 0 0 0 0 0 0 0 0 0 0 0 1 4 7 6 5 4 4 4 4 4 4 4 4 4 3 3 2 1 1 1 0 0 0 0 0 1 2 2 1 0
0 0 0 0 0 0 0 0 0 0 0 0 0 0 0 0 0 0 1 2 4 6 6 6 7 6 6 6 5 5 5 5 5 4 3 3 2 2 2 1 1 1 1 1 2 2 2 1 0
0 0 0 0 0 0 0 0 0 0 0 0 0 1 1 1 0 0 1 1 2 4 5 7 8 8 7 7 6 5 4 4 5 5 4 3 3 3 2 1 2 2 2 2 2 1 1 0 0
0 0 0 0 0 0 0 0 0 0 0 0 0 1 1 1 0 0 0 1 2 4 5 6 7 8 7 6 6 5 4 4 4 4 3 3 3 3 2 2 2 3 3 3 1 0 0 0 0
0 0 0 0 0 0 0 0 0 0 0 0 0 0 1 1 1 1 0 1 3 5 5 5 6 6 5 5 5 5 5 4 4 3 3 3 3 3 2 2 3 3 3 2 1 0 0 0 0
0 0 0 0 0 0 0 0 0 0 0 0 0 0 1 2 2 2 2 3 5 6 6 5 4 4 3 3 4 4 4 4 3 3 3 3 3 2 3 3 3 3 3 1 0 0 0 0 0
0 0 0 0 0 0 0 0 0 0 0 0 0 1 3 4 3 3 4 5 6 7 7 5 3 3 3 3 3 3 3 3 3 3 3 3 3 3 3 3 3 3 2 1 0 0 0 0 0
0 0 0 0 0 0 0 0 0 0 0 0 1 3 5 5 4 3 4 5 6 7 7 5 4 4 3 3 3 3 3 3 3 3 3 3 3 3 3 3 3 3 2 1 0 0 0 0 0
0 0 0 0 0 0 0 0 0 0 0 0 1 3 4 4 3 3 3 4 6 6 6 6 6 5 4 3 3 3 3 3 3 3 3 3 3 3 3 2 2 2 1 0 0 0 0 0 0
0 0 0 0 0 0 0 0 0 0 0 0 1 2 3 3 3 3 3 4 6 6 6 6 6 6 4 3 3 3 3 3 3 3 3 3 3 3 3 2 1 1 0 0 0 0 0 0 0
0 0 0 0 0 0 0 0 0 0 0 0 1 2 2 2 2 3 3 4 5 6 6 6 6 6 5 4 3 3 3 3 3 3 3 3 3 3 3 2 1 0 0 0 0 0 0 0 0
0 0 0 0 0 0 0 0 0 0 0 0 0 1 2 1 1 1 3 3 4 5 5 5 6 6 6 4 3 3 3 3 3 3 3 3 3 3 3 3 1 0 0 0 0 0 0 0 0
0 0 0 0 0 0 0 0 0 0 0 0 0 0 0 0 0 1 2 2 2 3 4 4 5 6 5 4 3 3 3 3 3 3 3 3 3 3 3 3 2 1 0 0 0 0 0 0 0
0 0 0 0 0 0 0 0 0 0 0 0 0 0 0 0 0 0 1 1 2 3 3 3 4 5 4 3 3 3 3 3 3 3 3 3 3 3 3 3 2 1 0 0 0 0 0 0 0
0 0 0 0 0 0 0 0 0 0 0 0 0 0 0 0 0 0 0 0 1 2 3 2 3 4 3 3 3 3 3 3 3 3 3 3 3 3 3 3 1 0 0 0 0 0 0 0 0
0 0 0 0 0 0 0 0 0 0 0 0 0 0 0 0 0 0 0 0 0 2 3 3 3 3 2 2 3 3 3 3 3 3 3 3 3 3 3 2 1 0 0 0 0 0 0 0 0
0 0 0 0 0 0 0 0 0 0 0 0 0 0 0 0 0 0 0 0 1 3 3 3 3 3 1 1 2 3 3 3 3 3 3 3 3 3 3 2 1 0 0 0 0 0 0 0 0
0 0 0 0 0 0 0 0 0 0 0 0 0 0 0 0 0 1 1 1 2 4 3 2 2 2 1 1 1 2 3 3 3 3 3 3 3 3 3 1 0 0 0 0 0 0 0 0 0
0 0 0 0 0 0 0 0 0 0 0 0 0 0 0 0 0 1 2 2 3 4 3 2 2 1 1 0 0 1 3 3 3 3 3 3 3 3 2 1 0 0 0 0 0 0 0 0 0
0 0 0 0 0 0 0 0 0 0 0 0 0 0 0 0 0 1 2 3 3 3 3 3 2 1 1 0 0 1 2 3 3 3 3 3 3 3 1 0 0 0 0 0 0 0 0 0 0
0 0 0 0 0 0 0 0 0 0 0 0 0 0 0 0 0 1 2 3 3 3 3 2 1 1 1 0 0 1 2 3 3 3 3 3 3 2 1 0 0 0 0 0 0 0 0 0 0
0 0 0 0 0 0 0 0 0 0 0 0 0 0 0 0 0 0 1 3 3 3 1 1 0 0 0 0 0 0 1 2 3 3 3 3 3 2 1 0 0 0 0 0 0 0 0 0 0
0 0 0 0 0 0 0 0 0 0 0 0 0 0 0 0 0 0 1 2 3 2 1 0 0 0 0 0 0 0 0 1 3 3 3 3 3 1 0 0 0 0 0 0 0 0 0 0 0
0 0 0 0 0 0 0 0 0 0 0 0 0 0 0 0 0 0 1 2 3 1 0 0 0 0 0 0 0 0 0 1 2 3 3 3 2 1 0 0 0 0 0 0 0 0 0 0 0
0 0 0 0 0 0 0 0 0 0 0 0 0 0 0 0 0 0 1 2 2 1 0 0 0 0 0 0 0 0 0 0 1 2 3 3 2 1 0 0 0 0 0 0 0 0 0 0 0
0 0 0 0 0 0 0 0 0 0 0 0 0 0 0 0 0 0 0 1 1 0 0 0 0 0 0 0 0 0 0 0 0 1 1 2 1 0 0 0 0 0 0 0 0 0 0 0 0
0 0 0 0 0 0 0 0 0 0 0 0 0 0 0 0 0 0 0 0 0 0 0 0 0 0 0 0 0 0 0 0 0 0 0 0 0 0 0 0 0 0 0 0 0 0 0 0 0
0 0 0 0 0 0 0 0 0 0 0 0 0 0 0 0 0 0 0 0 0 0 0 0 0 0 0 0 0 0 0 0 0 0 0 0 0 0 0 0 0 0 0 0 0 0 0 0 0
0 0 0 0 0 0 0 0 0 0 0 0 0 0 0 0 0 0 0 0 0 0 0 0 0 0 0 0 0 0 0 0 0 0 0 0 0 0 0 0 0 0 0 0 0 0 0 0 0
Wind_Speed
11 10 6 2 3 5 9 4 1 2 2 3 4 3 4 5 5 6 3 5 8 9 10 9 9 9 9 9 9 9 9 9 9 9 9 8 8 8 8 8 9 9 10 10 10 11 11 11 11
9 8 4 3 4 6 7 4 3 3 4 3 2 2 2 6 7 8 4 6 8 9 9 8 8 9 9 9 9 8 9 9 9 9 8 8 8 8 8 8 8 9 9 9 10 10 10 11 10
9 7 4 4 5 7 3 3 5 5 3 2 1 2 4 5 6 5 6 7 8 9 9 9 9 9 8 8 8 8 8 8 8 8 8 8 8 8 8 8 8 8 9 9 9 9 10 10 9
5 3 4 5 10 7 2 2 3 4 3 1 3 4 5 5 4 6 7 7 8 9 9 9 9 9 8 8 8 8 8 8 8 7 8 8 8 8 8 8 8 8 8 8 9 9 9 9 8
3 3 5 7 11 6 1 2 0 2 3 3 2 4 6 4 7 8 7 6 7 8 9 9 9 9 8 8 8 7 7 7 7 7 7 7 7 7 7 7 7 7 7 7 8 8 8 8 7
3 4 5 8 9 5 2 2 2 4 2 3 2 3 5 5 6 6 6 6 6 7 8 8 9 8 8 7 7 7 7 7 7 6 6 6 6 6 7 7 7 7 7 7 7 7 7 7 6
3 4 7 9 7 4 2 2 3 3 1 1 1 3 6 5 5 6 6 6 6 6 7 6 6 6 6 6 6 6 6 6 6 6 6 6 5 5 6 6 6 6 6 6 6 6 6 6 6
3 4 7 8 7 4 1 1 1 2 1 2 2 2 5 6 5 5 6 6 6 5 6 5 5 4 4 4 5 6 6 6 6 5 5 5 4 5 5 5 5 6 5 5 5 5 5 5 4
3 4 6 6 5 1 2 0 1 2 1 1 2 4 7 10 7 6 5 5 5 5 4 4 4 4 3 3 4 4 5 5 4 3 4 3 2 2 3 4 5 5 4 4 4 4 4 3 2
3 4 6 4 5 3 1 0 1 1 1 1 2 6 8 8 7 6 5 5 5 5 4 4 4 3 3 3 3 2 2 2 2 2 2 1 1 2 2 4 4 4 4 3 3 3 3 2 1
4 4 4 4 5 4 3 3 3 3 3 2 3 6 8 7 6 5 5 4 4 4 4 4 4 3 3 2 2 1 1 2 1 2 2 1 1 2 2 1 2 2 2 1 1 1 1 1 1
4 4 4 4 4 4 4 3 4 4 2 1 1 4 7 7 6 5 5 4 4 4 4 3 4 3 3 2 1 1 1 1 1 1 2 1 1 1 1 1 1 1 1 1 1 1 1 1 1
5 4 4 4 3 3 5 6 5 5 2 0 1 2 4 6 5 4 4 5 4 4 4 3 3 3 2 2 1 2 1 1 1 1 1 1 1 1 1 0 0 1 1 1 1 1 1 1 1
2 3 5 4 4 4 6 7 6 5 3 3 3 4 4 4 5 4 4 4 4 4 4 3 3 3 2 2 1 1 1 1 1 1 1 1 1 1 1 0 0 0 1 1 1 1 1 1 1
3 4 6 6 6 4 4 8 8 6 4 4 4 4 4 4 4 4 3 3 4 3 4 3 3 3 3 2 2 1 1 2 1 1 1 1 1 1 0 0 0 0 0 0 0 1 1 1 1
5 5 5 5 5 3 3 9 4 3 4 5 4 4 3 3 3 3 3 3 3 3 3 4 3 3 3 2 1 1 2 2 1 1 1 1 1 1 1 1 0 0 0 0 1 1 1 1 1
5 5 6 4 5 3 5 7 3 1 4 6 5 4 4 3 3 2 3 3 3 3 3 4 3 3 3 2 2 1 1 1 1 1 1 1 1 1 1 1 0 0 0 0 0 1 1 1 1
3 5 6 5 3 3 6 8 5 3 4 4 4 4 4 4 4 3 4 3 3 2 3 3 3 3 3 2 2 1 1 1 1 1 1 1 1 1 1 1 1 1 1 1 1 0 0 1 1
6 7 8 5 2 3 7 9 8 5 4 5 4 4 4 4 4 4 4 4 3 3 3 3 3 3 2 2 2 2 1 1 0 1 1 1 1 1 1 1 1 1 1 1 1 1 1 1 1
6 8 7 4 2 4 7 11 9 6 7 6 5 4 4 4 4 4 4 3 3 3 2 3 3 3 3 2 2 2 2 1 1 0 1 1 1 1 1 1 1 1 1 1 1 1 1 0 1
7 7 6 6 5 5 6 8 8 6 6 5 5 3 4 5 5 5 4 3 3 3 3 2 3 3 3 3 2 2 1 1 1 1 1 1 1 1 2 2 2 1 1 2 1 1 2 1 1
6 2 5 5 5 5 3 6 5 5 6 6 6 5 4 3 4 4 4 3 3 3 2 2 2 3 3 3 3 3 2 2 2 2 1 1 1 1 1 2 2 2 1 1 2 1 1 2 2
3 3 5 5 5 6 5 5 6 3 5 6 6 5 4 4 4 4 4 3 3 3 2 2 2 2 3 3 4 4 3 2 1 2 2 1 1 1 1 1 2 2 2 2 1 1 1 1 2
2 3 4 4 2 6 7 5 6 3 3 2 3 4 3 3 3 3 3 3 2 2 2 2 3 2 3 3 4 4 4 3 2 2 3 2 1 1 2 2 2 2 2 2 2 1 1 1 1
1 1 1 1 3 6 3 4 6 1 2 1 2 2 2 3 3 3 2 2 2 3 2 2 3 3 3 3 3 3 3 3 4 3 3 2 2 1 2 2 1 1 2 2 2 2 2 2 2
4 3 2 3 3 3 2 6 4 3 3 3 3 4 3 3 2 2 2 2 2 2 3 3 3 2 2 2 2 3 3 3 2 3 2 2 2 2 2 2 2 2 2 1 2 1 2 1 1
2 4 2 2 4 4 5 4 1 3 3 3 3 4 2 2 2 1 1 2 2 2 2 3 3 2 2 2 2 2 2 3 3 3 3 2 2 2 2 2 2 2 1 1 1 1 2 2 2
2 2 1 2 3 5 5 4 2 0 1 2 2 1 1 1 1 1 1 1 1 1 1 1 2 2 2 2 2 2 2 2 2 3 3 3 2 2 2 2 2 2 2 2 2 1 1 2 2
2 2 2 3 3 3 3 2 2 2 2 2 1 1 1 1 1 1 1 1 1 1 1 1 1 2 2 2 2 2 2 2 3 3 3 3 2 3 3 3 2 2 2 2 2 2 1 2 2
2 3 3 3 4 3 3 4 2 4 3 3 1 0 1 1 1 1 1 1 1 1 1 1 1 1 2 2 2 2 2 2 2 3 3 3 3 3 3 3 3 2 2 2 2 2 2 2 3
Wind_Direction
298 274 255 253 244 235 244 239 156 87 57 45 32 33 35 36 44 102 134 104 110 116 121 118 108 105 103 98 94 90 87 89 85 84 85 84 84 82 81 82 82 82 82 81 82 82 81 78 77
290 277 257 237 239 241 240 202 173 103 79 71 44 45 66 77 79 104 121 109 113 113 117 116 108 107 104 101 97 93 89 88 86 84 85 85 84 83 81 80 81 82 82 81 83 85 83 80 77
275 265 249 234 235 243 250 95 108 98 108 145 120 41 42 71 85 104 116 122 114 110 112 111 109 107 105 101 98 94 91 90 87 84 83 85 85 84 82 80 81 81 80 80 82 85 85 81 76
271 243 241 243 250 256 300 72 86 122 141 158 130 104 77 47 65 102 115 122 118 113 110 112 110 109 107 103 99 97 94 91 89 86 82 80 82 85 85 83 81 80 80 81 82 84 86 84 77
247 246 235 240 247 254 302 77 105 214 170 159 139 112 94 71 86 105 115 117 113 112 113 118 111 111 108 105 103 100 97 94 90 88 85 83 82 86 89 89 87 83 83 84 83 82 86 86 80
253 244 241 240 242 234 192 160 223 253 169 135 144 121 104 109 106 116 116 109 103 104 111 119 110 109 107 105 105 102 98 96 93 88 87 90 90 88 90 92 94 91 89 86 85 82 83 85 83
257 258 255 260 258 240 196 153 218 246 188 114 174 119 118 121 116 122 117 111 106 104 106 114 116 111 104 102 100 100 96 95 92 87 81 80 82 86 91 93 95 95 91 90 90 89 87 88 84
282 277 257 257 256 251 91 56 338 337 14 21 359 124 129 133 124 122 117 112 109 106 108 113 118 114 113 111 99 100 98 95 92 88 81 73 77 86 87 94 100 101 96 95 97 97 93 92 87
273 257 255 261 272 281 95 250 333 3 15 50 40 60 107 125 125 122 120 120 121 112 109 116 116 118 117 125 117 110 105 104 106 105 102 92 95 99 95 98 99 106 105 106 108 109 103 101 96
222 243 252 287 329 348 10 319 270 216 224 175 108 94 113 128 138 146 151 151 147 136 126 121 114 114 115 115 119 126 125 124 123 121 127 125 90 90 87 102 107 109 110 115 124 128 126 128 149
225 246 269 306 347 344 324 315 300 243 238 219 168 141 142 146 151 161 165 154 142 136 133 130 127 122 114 104 117 117 121 130 134 109 107 101 93 103 106 120 122 126 133 138 138 156 181 165 153
249 276 292 299 333 325 303 286 275 276 273 0 77 148 153 162 169 173 167 151 136 130 129 122 124 122 120 116 121 123 111 116 119 116 108 75 79 96 116 121 143 161 170 170 172 190 189 171 162
244 267 278 284 301 294 290 277 279 264 263 17 48 139 173 176 172 172 165 149 139 137 133 125 119 121 123 121 124 106 113 109 103 98 100 85 81 91 94 137 150 186 181 185 175 189 159 149 170
270 270 273 266 258 263 268 268 258 250 223 198 185 196 199 180 169 163 157 151 150 148 143 132 127 125 125 124 121 120 120 116 99 97 81 78 80 88 77 51 93 172 205 186 163 173 141 140 140
267 265 261 241 236 237 271 262 234 225 214 212 201 204 198 184 178 174 164 155 150 146 140 135 135 129 129 128 132 132 127 124 123 116 100 85 79 86 87 73 36 5 323 251 158 165 135 148 128
238 244 246 222 212 214 240 262 241 198 202 222 215 210 204 192 183 167 148 144 139 138 140 141 137 135 135 131 137 139 129 124 126 120 116 101 89 90 99 111 103 24 324 294 164 160 131 159 145
221 243 247 239 200 201 229 263 261 230 220 227 220 210 199 191 178 158 145 139 136 140 134 137 140 141 141 135 132 129 124 124 119 109 106 104 97 104 110 116 120 106 66 50 157 111 134 149 149
252 259 262 245 198 223 243 260 262 259 247 237 224 212 197 181 182 164 146 139 136 137 136 135 138 138 136 133 127 121 105 109 106 111 116 127 134 120 113 112 95 102 105 60 48 93 118 145 146
302 291 286 300 340 269 261 268 265 239 236 234 227 214 194 187 169 143 135 136 137 130 129 140 133 142 136 139 153 153 157 153 136 148 137 146 129 116 113 113 125 107 116 110 94 99 118 126 119
280 283 285 298 338 295 278 274 265 230 227 227 221 208 187 175 162 150 148 151 155 154 143 145 151 153 150 155 162 164 161 164 164 165 171 162 158 154 154 146 148 130 132 124 121 123 135 201 154
260 261 278 292 304 268 277 281 245 233 222 213 210 202 188 178 171 160 161 160 157 161 163 159 167 157 158 156 139 129 115 132 147 191 202 204 179 164 165 169 163 162 160 162 162 162 159 187 224
267 290 286 284 289 276 240 286 266 214 213 208 208 199 198 177 164 163 160 163 167 165 154 161 167 165 168 163 159 160 176 188 198 192 193 194 182 164 174 176 166 163 165 170 185 169 174 171 194
284 320 287 275 266 277 252 255 274 208 226 219 204 191 184 172 168 163 160 163 159 149 154 173 169 176 175 177 175 177 193 194 175 170 176 186 184 169 174 183 177 169 176 182 183 166 164 177 187
295 292 272 259 255 258 233 226 271 214 235 227 185 167 161 147 132 130 132 137 138 136 149 172 174 186 182 181 179 183 190 188 178 189 196 192 187 182 183 183 181 183 179 182 186 180 175 184 189
273 273 300 261 226 245 235 228 251 160 57 57 122 126 117 109 117 123 126 138 150 160 175 178 177 185 182 179 179 180 182 188 192 196 199 189 183 186 195 194 197 197 194 188 178 176 190 188 184
222 221 212 239 248 272 237 230 248 102 84 66 80 94 98 99 109 130 148 157 164 174 184 175 175 181 179 174 180 184 184 190 203 195 186 193 196 190 183 191 204 213 208 201 172 166 196 198 196
219 228 261 287 290 278 241 241 232 99 89 91 89 88 101 111 116 117 128 137 147 165 187 175 171 177 181 176 172 179 187 188 190 186 182 192 187 177 179 191 197 199 203 195 171 185 213 203 208
277 287 190 214 250 260 253 240 259 62 108 108 105 120 126 114 114 112 126 131 143 147 154 149 161 172 176 170 178 182 191 190 179 181 182 185 185 171 174 189 194 196 198 193 179 192 219 213 222
210 239 236 231 242 252 270 273 354 46 73 118 157 172 172 151 147 156 163 152 130 121 124 147 156 159 174 174 169 174 192 192 181 181 187 182 176 171 179 188 188 196 205 196 183 195 201 218 232
211 225 209 220 250 243 259 267 8 45 51 57 57 47 119 149 161 148 148 141 134 135 155 207 182 180 192 182 175 187 189 183 180 186 188 176 176 179 183 185 188 197 204 204 199 202 203 210 223